TimeEDT,TemperatureF,Dew PointF,Humidity,Sea Level PressureIn,VisibilityMPH,Wind Direction,Wind SpeedMPH,Gust SpeedMPH,PrecipitationIn,Events,Conditions,WindDirDegrees,DateUTC
12:15 AM,62.6,53.4,72,30.03,10.0,North,4.6,-,N/A,,Unknown,360,2013-05-24 04:15:00
12:35 AM,63.1,51.4,66,30.03,10.0,NNE,4.6,-,N/A,,Unknown,20,2013-05-24 04:35:00
12:55 AM,62.8,50.4,64,30.03,10.0,NNW,3.5,-,N/A,,Unknown,330,2013-05-24 04:55:00
1:15 AM,61.3,54.0,77,30.03,10.0,Calm,Calm,-,N/A,,Unknown,0,2013-05-24 05:15:00
1:35 AM,59.9,54.0,81,30.03,10.0,Calm,Calm,-,N/A,,Unknown,0,2013-05-24 05:35:00
1:55 AM,58.8,54.3,85,30.03,10.0,Calm,Calm,-,N/A,,Unknown,0,2013-05-24 05:55:00
2:15 AM,58.8,54.0,84,30.03,10.0,Calm,Calm,-,N/A,,Unknown,0,2013-05-24 06:15:00
2:35 AM,60.3,52.2,75,30.03,10.0,North,3.5,-,N/A,,Unknown,10,2013-05-24 06:35:00
2:55 AM,60.1,53.2,78,30.03,10.0,Calm,Calm,-,N/A,,Unknown,0,2013-05-24 06:55:00
3:15 AM,60.6,51.6,72,30.03,10.0,NNW,3.5,-,N/A,,Unknown,330,2013-05-24 07:15:00
3:35 AM,60.3,51.8,74,30.03,10.0,Calm,Calm,-,N/A,,Unknown,0,2013-05-24 07:35:00
3:55 AM,60.3,51.4,73,30.04,10.0,NNE,9.2,-,N/A,,Unknown,20,2013-05-24 07:55:00
4:15 AM,60.6,50.9,70,30.04,10.0,NE,4.6,-,N/A,,Unknown,50,2013-05-24 08:15:00
4:35 AM,60.1,50.2,70,30.05,10.0,Calm,Calm,-,N/A,,Unknown,0,2013-05-24 08:35:00
4:55 AM,57.7,50.9,78,30.05,10.0,ENE,3.5,-,N/A,,Unknown,60,2013-05-24 08:55:00
5:15 AM,55.8,52.0,87,30.04,10.0,ENE,3.5,-,N/A,,Unknown,60,2013-05-24 09:15:00
5:35 AM,57.2,51.8,82,30.05,10.0,Calm,Calm,-,N/A,,Unknown,0,2013-05-24 09:35:00
5:55 AM,56.3,52.3,87,30.05,10.0,Calm,Calm,-,N/A,,Unknown,0,2013-05-24 09:55:00
6:15 AM,56.3,52.7,88,30.05,10.0,Calm,Calm,-,N/A,,Unknown,0,2013-05-24 10:15:00
6:35 AM,56.8,52.0,84,30.06,10.0,Calm,Calm,-,N/A,,Unknown,0,2013-05-24 10:35:00
6:55 AM,56.7,52.9,87,30.06,10.0,Calm,Calm,-,N/A,,Unknown,0,2013-05-24 10:55:00
7:15 AM,56.8,52.9,87,30.07,10.0,Calm,Calm,-,N/A,,Unknown,0,2013-05-24 11:15:00
7:35 AM,57.6,53.1,85,30.08,10.0,SW,3.5,-,N/A,,Unknown,230,2013-05-24 11:35:00
7:55 AM,58.1,53.8,86,30.08,10.0,Calm,Calm,-,N/A,,Unknown,0,2013-05-24 11:55:00
8:15 AM,59.9,50.2,70,30.10,10.0,NNE,5.8,-,N/A,,Unknown,20,2013-05-24 12:15:00
8:35 AM,58.1,50.0,74,30.12,10.0,NNE,8.1,-,N/A,,Unknown,20,2013-05-24 12:35:00
8:55 AM,57.2,49.1,74,30.14,10.0,North,4.6,-,N/A,,Unknown,10,2013-05-24 12:55:00
9:15 AM,58.1,48.4,70,30.15,10.0,NE,4.6,-,N/A,,Unknown,50,2013-05-24 13:15:00
9:35 AM,57.9,48.0,70,30.15,10.0,NE,10.4,-,N/A,,Unknown,50,2013-05-24 13:35:00
9:55 AM,57.4,47.3,69,30.17,10.0,NNW,5.8,18.4,N/A,,Unknown,330,2013-05-24 13:55:00
10:15 AM,57.7,46.2,65,30.18,10.0,NE,10.4,-,N/A,,Unknown,40,2013-05-24 14:15:00
10:35 AM,59.0,45.0,60,30.19,10.0,North,9.2,-,N/A,,Unknown,10,2013-05-24 14:35:00
10:55 AM,59.7,44.1,56,30.19,10.0,NNE,8.1,20.7,N/A,,Unknown,30,2013-05-24 14:55:00
11:15 AM,60.6,43.3,53,30.20,10.0,NNW,5.8,18.4,N/A,,Unknown,330,2013-05-24 15:15:00
11:35 AM,59.9,42.3,52,30.20,10.0,NNW,3.5,17.3,N/A,,Unknown,330,2013-05-24 15:35:00
11:55 AM,61.5,42.6,50,30.20,10.0,North,6.9,26.5,N/A,,Unknown,350,2013-05-24 15:55:00
12:15 PM,62.8,43.2,49,30.20,10.0,East,9.2,19.6,N/A,,Unknown,90,2013-05-24 16:15:00
12:35 PM,64.0,42.3,45,30.20,10.0,North,9.2,25.3,N/A,,Unknown,360,2013-05-24 16:35:00
12:55 PM,64.9,42.1,43,30.20,10.0,North,9.2,17.3,N/A,,Unknown,360,2013-05-24 16:55:00
1:15 PM,63.9,41.5,44,30.20,10.0,NW,4.6,-,N/A,,Unknown,320,2013-05-24 17:15:00
1:35 PM,66.0,41.2,40,30.20,10.0,NNW,11.5,18.4,N/A,,Unknown,340,2013-05-24 17:35:00
1:55 PM,66.9,42.6,41,30.20,10.0,North,11.5,18.4,N/A,,Unknown,360,2013-05-24 17:55:00
2:15 PM,66.6,41.9,41,30.20,10.0,NNE,10.4,16.1,N/A,,Unknown,30,2013-05-24 18:15:00
2:35 PM,66.9,40.1,37,30.20,10.0,NNW,5.8,-,N/A,,Unknown,340,2013-05-24 18:35:00
2:55 PM,67.5,41.7,39,30.20,10.0,North,8.1,17.3,N/A,,Unknown,350,2013-05-24 18:55:00
3:15 PM,66.9,40.3,38,30.20,10.0,NW,12.7,21.9,N/A,,Unknown,310,2013-05-24 19:15:00
3:35 PM,68.4,39.6,35,30.20,10.0,North,13.8,19.6,N/A,,Unknown,360,2013-05-24 19:35:00
3:55 PM,68.2,40.1,36,30.20,10.0,North,9.2,17.3,N/A,,Unknown,350,2013-05-24 19:55:00
4:15 PM,68.2,37.2,32,30.20,10.0,Calm,Calm,-,N/A,,Unknown,0,2013-05-24 20:15:00
4:35 PM,69.4,39.0,33,30.20,10.0,North,5.8,-,N/A,,Unknown,10,2013-05-24 20:35:00
4:55 PM,68.0,37.9,33,30.21,10.0,Calm,Calm,-,N/A,,Unknown,0,2013-05-24 20:55:00
5:15 PM,68.4,39.6,35,30.21,10.0,NNW,8.1,16.1,N/A,,Unknown,330,2013-05-24 21:15:00
5:35 PM,67.5,39.0,35,30.21,10.0,North,9.2,16.1,N/A,,Unknown,350,2013-05-24 21:35:00
5:55 PM,67.3,38.3,35,30.22,10.0,NNW,6.9,17.3,N/A,,Unknown,340,2013-05-24 21:55:00
6:15 PM,67.3,37.8,34,30.22,10.0,North,6.9,-,N/A,,Unknown,360,2013-05-24 22:15:00
6:35 PM,66.4,38.3,36,30.22,10.0,North,9.2,-,N/A,,Unknown,360,2013-05-24 22:35:00
6:55 PM,65.3,38.1,37,30.22,10.0,North,9.2,16.1,N/A,,Unknown,10,2013-05-24 22:55:00
7:15 PM,64.8,38.3,38,30.22,10.0,NNE,5.8,-,N/A,,Unknown,30,2013-05-24 23:15:00
7:35 PM,64.0,37.4,37,30.22,10.0,NNW,4.6,-,N/A,,Unknown,340,2013-05-24 23:35:00
7:55 PM,63.1,36.7,37,30.23,10.0,NNW,8.1,-,N/A,,Unknown,330,2013-05-24 23:55:00
8:15 PM,61.0,36.3,40,30.23,10.0,North,3.5,-,N/A,,Unknown,10,2013-05-25 00:15:00
8:35 PM,58.5,39.7,50,30.23,10.0,Calm,Calm,-,N/A,,Unknown,0,2013-05-25 00:35:00
8:55 PM,54.1,41.9,63,30.23,10.0,Calm,Calm,-,N/A,,Unknown,0,2013-05-25 00:55:00
9:15 PM,53.6,41.5,64,30.23,10.0,Calm,Calm,-,N/A,,Unknown,0,2013-05-25 01:15:00
9:35 PM,52.2,42.1,69,30.24,10.0,Calm,Calm,-,N/A,,Unknown,0,2013-05-25 01:35:00
9:55 PM,50.2,42.3,74,30.24,10.0,Calm,Calm,-,N/A,,Unknown,0,2013-05-25 01:55:00
10:15 PM,49.3,42.3,77,30.25,10.0,Calm,Calm,-,N/A,,Unknown,0,2013-05-25 02:15:00
10:35 PM,48.7,42.6,79,30.26,10.0,Calm,Calm,-,N/A,,Unknown,0,2013-05-25 02:35:00
10:55 PM,47.8,42.3,81,30.27,10.0,Calm,Calm,-,N/A,,Unknown,0,2013-05-25 02:55:00
11:15 PM,46.9,42.1,83,30.28,10.0,Calm,Calm,-,N/A,,Unknown,0,2013-05-25 03:15:00
11:35 PM,46.2,42.1,85,30.27,10.0,ENE,4.6,-,N/A,,Unknown,70,2013-05-25 03:35:00
11:55 PM,46.8,42.3,84,30.27,10.0,Calm,Calm,-,N/A,,Unknown,0,2013-05-25 03:55:00